Regional Weather Roundup
Issued by NWS Sterling, VA

Home | Current Version | Previous Version | Graphics & Text | Print | Product List | Glossary On
Versions: 1 2 3 4 5 6 7 8 9 10 11 12 13 14 15 16 17 18 19 20 21 22 23 24 25 26 27 28 29 30 31 32 33 34 35 36 37 38 39 40 41 42 43 44 45
000
ASUS41 KLWX 272010
RWRLWX

REGIONAL WEATHER ROUNDUP
NATIONAL WEATHER SERVICE BALTIMORE MD/WASHINGTON DC
400 PM EDT MON JUL 27 2015

Note: "FAIR" indicates few or no clouds below 12,000 feet
with no significant weather and/or obstructions to visibility.
 TC=TEMPERATURE CELSIUS

 * =Non NWS site. Station does not report precipitation (e.g. rain,
    snow, etc.), thunder, or fog.

DCZ001-MDZ009-015-VAZ040>042-051-053>054-272100-
WASHINGTON METRO

CITY           SKY/WX    TMP DP  RH WIND       PRES   REMARKS
WASHINGTON NAT TSTM      73  68  83 N7        30.00R
DULLES         TSTM      78  71  79 S3        29.99S
ANDREWS AFB    LGT RAIN  80  74  81 NE3       29.98S
FT BELVOIR     CLOUDY    81  73  78 CALM      29.99R THUNDER
QUANTICO       CLOUDY    83  72  69 SE3       29.96F
COLLEGE PARK*  PTSUNNY   82  75  78 CALM      29.97F
LEESBURG*      MOSUNNY   88  77  70 W9G16     29.98F HX 100
MANASSAS*      SUNNY     77  72  83 CALM      29.97F
GAITHERSBURG*  CLOUDY    81  72  74 E5        30.02F THUNDER

$$

MDZ006>007-011-014-272100-
BALTIMORE METRO

CITY           SKY/WX    TMP DP  RH WIND       PRES   REMARKS
BWI AIRPORT    CLOUDY    84  71  65 NE7       29.97F
MD SCIENCE CTR   N/A     83  71  67 MISG      29.98F
MARTIN STATE   PTSUNNY   84  75  74 E9        30.00S HX  92
ANNAPOLIS      PTSUNNY   80  73  79 SE9       29.97F
FORT MEADE*    CLOUDY    86  70  58 CALM      29.99F HX  90

$$

MDZ012-015-019>023-272100-
MARYLAND EASTERN SHORE

CITY           SKY/WX    TMP DP  RH WIND       PRES   REMARKS
OCEAN CITY     CLOUDY    80  70  71 S8        30.01F
SALISBURY      PTSUNNY   81  73  76 SE6       30.00S
BAY BRIDGE AP*   N/A     82  70  65 S9        29.97F
CAMBRIDGE*     MOSUNNY   81  70  69 S5        29.99S
EASTON*        PTSUNNY   86  72  62 S12       30.03S HX  92

$$

MDZ017>025-272100-
SOUTHERN MARYLAND

CITY           SKY/WX    TMP DP  RH WIND       PRES   REMARKS
PATUXENT RIVER PTSUNNY   83  73  72 S7        29.97F
ST INIGOES     PTSUNNY   83  72  69 S7        29.97F
LEONARDTOWN*   PTSUNNY   82  72  69 CALM      29.99F

$$

MDZ003>005-272100-
NORTH CENTRAL MARYLAND

CITY           SKY/WX    TMP DP  RH WIND       PRES   REMARKS
FREDERICK*     PTSUNNY   84  73  70 E6        30.00F HX  91
HAGERSTOWN APT MOSUNNY   85  69  58 E8        29.98F
WESTMINSTER*   SUNNY     84  72  65 CALM      30.01S

$$

MDZ501>502-272100-
WESTERN MARYLAND

CITY           SKY/WX    TMP DP  RH WIND       PRES   REMARKS
OAKLAND*       SUNNY     81  68  65 W5        30.09S
CUMBERLAND*    SUNNY     88  66  48 NE6       29.99F HX  90

$$

VAZ025>031-272100-
SHENANDOAH VALLEY

CITY           SKY/WX    TMP DP  RH WIND       PRES   REMARKS
WINCHESTER*    MOSUNNY   84  66  54 S7        29.99F
FRONT ROYAL*   CLOUDY    72  70  94 W7        30.00S
LURAY*         MOCLDY    88  73  62 E7        29.98F HX  96
NEW MARKET*    FAIR      83  71  66 E10G16    29.95S
STAUNTON*      PTSUNNY   85  68  56 S12G20    30.01R
WAYNESBORO*    CLOUDY    79  70  73 E10G28    30.00S

$$

WVZ021-048>050-054>055-272100-
EASTERN WEST VIRGINIA PANHANDLE

CITY           SKY/WX    TMP DP  RH WIND       PRES   REMARKS
MARTINSBURG    MOSUNNY   84  70  62 VRB3      29.98F
PETERSBURG*    LGT RAIN N/A N/A N/A CALM      29.97F

$$

VAZ036>039-050-272100-
CENTRAL FOOTHILLS

CITY           SKY/WX    TMP DP  RH WIND       PRES   REMARKS
CHARLOTTESVILL TSTM      77  74  90 NW9       30.00R FOG
CULPEPER*      CLOUDY    82  73  75 CALM      29.97F
ORANGE*        LGT RAIN  81  73  78 CALM      29.99F
GORDONSVILLE*  FAIR      81  73  78 NE5       29.97F
WARRENTON*     FAIR      82  76  81 S3        29.97F

$$

VAZ055>057-272100-
NORTH AND CENTRAL PIEDMONT

CITY           SKY/WX    TMP DP  RH WIND       PRES   REMARKS
FREDERICKSBRG* CLOUDY    87  73  62 CALM      29.96S HX  94
STAFFORD*      CLOUDY    83  70  65 S3        30.00F

$$

NCZ024-NYZ072-PAZ021-071-VAZ022-071-272100-
OTHER REGIONAL OBSERVATIONS

CITY           SKY/WX    TMP DP  RH WIND       PRES   REMARKS
NEW YORK CITY  SUNNY     83  67  58 VRB5      30.02S
PHILADELPHIA   PTSUNNY   85  68  56 SW9       29.99F
PITTSBURGH     MOSUNNY   89  61  38 NE9       30.00F
ROANOKE        CLOUDY    84  70  62 VRB3      30.01F
RICHMOND       PTSUNNY   88  71  57 S12       29.97F HX  94
RALEIGH        PTSUNNY   89  72  56 VRB5      29.98F HX  96

$$

ANZ530>537-272100-
MARINE OBSERVATIONS

STATION/POSITION TIME  TEMP    WIND        PRES
                       AIR SEA DIR/SP/G
                 (UTC) (F)     (DEG/KT/KT) (MB)
THOMAS PT LIGHT  NOT AVBL
BALT KEY BRIDGE  1900   80     120/  6/  7 1015.2F
COVE POINT       1900   79     170/ 15/ 17 1016.1F
LEWISETTA        1900   83 83  230/  8/ 10 1015.0F
SOLOMONS ISLAND  1900      82                N/A

$$



USA.gov is the U.S. government's official web portal to all federal, state and local government web resources and services.